This is the latest recevied weather packets stored in our database for station/object W7BTL. If no packets are shown the sender has not sent any weather packets the latest 10 day(s).
| Time | Temp. | Humidity | Pressure | Rain* | Wind** | Luminosity | Snow |
|---|---|---|---|---|---|---|---|
| 1788123819 | 34.44° C | 40% | 1011.2 hPa | 0 mm | - | 913 W/m² | - |
| 1788123518 | 33.89° C | 42% | 1011.2 hPa | 0 mm | - | 922 W/m² | - |
| 1788123217 | 33.89° C | 42% | 1011.4 hPa | 0 mm | - | 931 W/m² | - |
| 1788122912 | 33.89° C | 42% | 1011.3 hPa | 0 mm | - | 941 W/m² | - |
| 1788122611 | 33.89° C | 42% | 1011.4 hPa | 0 mm | - | 950 W/m² | - |
| 1788122307 | 33.89° C | 43% | 1011.3 hPa | 0 mm | - | 955 W/m² | - |
| 1788122003 | 33.89° C | 44% | 1011.2 hPa | 0 mm | - | 909 W/m² | - |
| 1788121702 | 33.89° C | 45% | 1011.2 hPa | 0 mm | - | 967 W/m² | - |
| 1788121398 | 33.33° C | 46% | 1011.2 hPa | 0 mm | - | 969 W/m² | - |
| 1788121093 | 32.78° C | 48% | 1011.4 hPa | 0 mm | - | 976 W/m² | - |
| 1788120787 | 33.33° C | 45% | 1011.3 hPa | 0 mm | - | 977 W/m² | - |
| 1788120483 | 32.78° C | 46% | 1011.3 hPa | 0 mm | - | 980 W/m² | - |
| 1788120181 | 33.33° C | 46% | 1011.5 hPa | 0 mm | - | 984 W/m² | - |
| 1788119877 | 33.33° C | 48% | 1011.2 hPa | 0 mm | - | 983 W/m² | - |
| 1788119577 | 32.78° C | 49% | 1011.4 hPa | 0 mm | - | 985 W/m² | - |
| 1788119275 | 32.78° C | 49% | 1011.3 hPa | 0 mm | - | 986 W/m² | - |
| 1788118969 | 32.78° C | 47% | 1011.5 hPa | 0 mm | - | 986 W/m² | - |
| 1788118664 | 32.78° C | 49% | 1011.4 hPa | 0 mm | - | 967 W/m² | - |
| 1788118363 | 32.78° C | 50% | 1011.6 hPa | 0 mm | - | 892 W/m² | - |
| 1788118059 | 32.78° C | 51% | 1011.5 hPa | 0 mm | - | 879 W/m² | - |
| 1788117754 | 32.22° C | 52% | 1011.5 hPa | 0 mm | - | 977 W/m² | - |
| 1788117450 | 32.78° C | 50% | 1011.7 hPa | 0 mm | - | 965 W/m² | - |
| 1788117150 | 32.22° C | 51% | 1011.6 hPa | 0 mm | - | 965 W/m² | - |
| 1788116846 | 32.22° C | 51% | 1011.6 hPa | 0 mm | - | 962 W/m² | - |
| 1788116545 | 32.78° C | 51% | 1011.7 hPa | 0 mm | - | 950 W/m² | - |
* Rain latest hour (hover to see other rain measurements)
** Current wind speed in m/s (hover to see current wind gust speed)